Regional Weather Roundup
Issued by NWS

Home | Current Version | Previous Version | Graphics & Text | Print | Product List | Glossary On
Versions: 1 2 3 4 5 6 7 8 9 10 11 12 13 14 15 16 17 18 19 20 21 22 23 24 25 26 27 28
000
ASUS45 KBOI 281310
RWRID

IDAHO REGIONAL WEATHER ROUNDUP
NATIONAL WEATHER SERVICE BOISE ID
700 AM MDT THU APR 28 2016

NOTE: "FAIR" INDICATES FEW OR NO CLOUDS BELOW 12000 FEET
WITH NO SIGNIFICANT WEATHER AND/OR OBSTRUCTIONS TO VISIBILITY

IDZ012-014-281400-
SOUTHWEST IDAHO


CITY           SKY/WX    TMP DP  RH WIND       PRES   REMARKS
BOISE          CLEAR     43  37  79 CALM      29.82S
CALDWELL       CLEAR     44  37  76 W6        29.84R
MOUNTAIN HOME  CLOUDY    44  38  78 NW12      29.81R
$$

IDZ016-017-281400-
SOUTHCENTRAL IDAHO


CITY           SKY/WX    TMP DP  RH WIND       PRES   REMARKS
BURLEY         CLEAR     38  31  76 E3        29.79R
JEROME         CLOUDY    41  34  76 E6        29.81R
TWIN FALLS     CLEAR     34  31  88 SW6       29.81R WCI  29
$$

IDZ019>023-281400-
SOUTHEAST IDAHO


CITY           SKY/WX    TMP DP  RH WIND       PRES   REMARKS
IDAHO FALLS    CLEAR     33  26  75 N6        29.83R WCI  28
POCATELLO      CLEAR     35  29  78 NE6       29.81R WCI  30
REXBURG        PTCLDY    31  24  75 CALM      29.83R
$$

IDZ006-010-011-018-031-032-281400-
CENTRAL IDAHO MOUNTAINS


CITY           SKY/WX    TMP DP  RH WIND       PRES   REMARKS
MCCALL         CLEAR     37  33  85 N5        29.86S WCI  33
HAILEY         PTCLDY    39  34  81 NW5       29.82S
STANLEY          N/A     33  30  88 W5        29.88S WCI  29
SALMON         CLOUDY    43  27  52 NE3       29.91R
CHALLIS        CLOUDY    40  28  62 N6        29.87S
$$

IDZ002-004-006-007-026-281400-
NORTHERN IDAHO


CITY           SKY/WX    TMP DP  RH WIND       PRES   REMARKS
LEWISTON       CLEAR     50  39  66 CALM      29.95S
LOWELL           N/A     44  40  85 CALM      29.98R
COEUR D`ALENE  CLEAR     41  37  87 NE10      29.96R
MULLAN PASS    PTCLDY    31  26  82 E6        29.96R WCI  25
$$




USA.gov is the U.S. government's official web portal to all federal, state and local government web resources and services.